Szeged, Hungary

5:16 PM CEST on August 25, 2016 (GMT +0200)
Szeged

Weather History for LHUD - July, 2013

Change the Weather History Date:

Saturday, July 20, 2013

  Actual Average (LRAR) Record (LRAR)
Temperature  
Mean Temperature 73 °F -  
Max Temperature 87 °F 81 °F 104 °F (2007)
Min Temperature 59 °F 57 °F 42 °F (1996)
Cooling Degree Days 8    
Growing Degree Days 23 (Base 50)    
Moisture  
Dew Point 60 °F    
Average Humidity 58    
Maximum Humidity 97    
Minimum Humidity 30    
Precipitation  
Precipitation 0.00 in 0.07 in - ()
Sea Level Pressure  
Sea Level Pressure 29.97 in    
Wind  
Wind Speed 6 mph ()    
Max Wind Speed 13 mph    
Max Gust Speed 23 mph    
Visibility 7.6 miles    
Events      
Averages and records for this station are not official NWS values.
T = Trace of Precipitation, MM = Missing Value Source: Averaged Metar Reports

Daily Weather History Graph

Daily Weather History Graph

Search for Another Location

Airport or City:

Trip Planner

Search our weather history database for the weather conditions in past years. The results will help you decide how hot, cold, wet, or windy it might be!

Date:

Astronomy

Jul. 20, 2013 Rise Set
Actual Time 5:07 AM CEST 8:23 PM CEST
Civil Twilight 4:31 AM CEST 9:00 PM CEST
Nautical Twilight 3:43 AM CEST 9:47 PM CEST
Astronomical Twilight 2:43 AM CEST 10:46 PM CEST
Moon 6:08 PM CEST (7/20) 2:29 AM CEST (7/20)
Length of Visible Light 16h 29m
Length of Day
15h 16m
Waxing Gibbous, 92% of the Moon is Illuminated
Jul 20
Waxing Gibbous
Jul 22
Full
Jul 29
Last Quarter
Aug 6
New
Aug 14
First Quarter

Hourly Weather History & Observations

Time (CEST) Temp. Heat Index Dew Point Humidity Pressure Visibility Wind Dir Wind Speed Gust Speed Precip Events Conditions
12:45 AM 64.4 °F - 62.6 °F 94% 29.98 in - SW 2.3 mph - N/A   Clear
1:45 AM 62.6 °F - 60.8 °F 94% 29.98 in - WNW 3.5 mph - N/A   Clear
2:00 AM 62 °F - 61 °F 97% 29.98 in 9 mi WNW 4.5 mph - -   Partly Cloudy
2:45 AM 62.6 °F - 60.8 °F 94% 29.98 in - WNW 3.5 mph - N/A   Clear
3:45 AM 60.8 °F - 59.0 °F 94% 29.98 in - SW 3.5 mph - N/A   Clear
4:45 AM 60.8 °F - 59.0 °F 94% 29.95 in - SW 3.5 mph - N/A   Clear
5:45 AM 60.8 °F - 59.0 °F 94% 29.95 in - WNW 4.6 mph - N/A   Clear
6:15 AM 64.4 °F - 60.8 °F 88% 29.95 in - West 4.6 mph - N/A   Clear
6:45 AM 68.0 °F - 62.6 °F 83% 29.95 in - West 3.5 mph - N/A   Clear
7:15 AM 69.8 °F - 62.6 °F 78% 29.95 in - WNW 4.6 mph - N/A   Clear
7:45 AM 73.4 °F - 62.6 °F 69% 29.98 in - WNW 4.6 mph - N/A   Clear
8:00 AM 72 °F - 62 °F 64% 29.96 in 16 mi WNW 4.5 mph - -   Partly Cloudy
8:15 AM 75.2 °F - 62.6 °F 65% 29.98 in - WNW 4.6 mph - N/A   Clear
8:45 AM 77.0 °F - 62.6 °F 61% 29.98 in - NW 8.1 mph - N/A   Clear
9:15 AM 78.8 °F - 62.6 °F 57% 29.98 in - WNW 6.9 mph - N/A   Clear
9:45 AM 80.6 °F 81.8 °F 62.6 °F 54% 29.98 in - WNW 6.9 mph - N/A   Clear
10:15 AM 82.4 °F 83.9 °F 64.4 °F 54% 29.98 in 6.2 mi NW 8.1 mph - N/A   Partly Cloudy
10:45 AM 82.4 °F 82.9 °F 60.8 °F 48% 29.98 in 6.2 mi NW 10.4 mph - N/A   Partly Cloudy
11:15 AM 84.2 °F 85.0 °F 62.6 °F 48% 29.98 in 6.2 mi North 9.2 mph - N/A   Partly Cloudy
11:45 AM 84.2 °F 84.4 °F 60.8 °F 45% 29.98 in - NW 12.7 mph - N/A   Clear
12:15 PM 86.0 °F 86.1 °F 60.8 °F 43% 29.98 in - NW 10.4 mph 23.0 mph N/A   Clear
12:45 PM 86.0 °F 86.1 °F 60.8 °F 43% 29.98 in - WNW 11.5 mph - N/A   Clear
1:15 PM 86.0 °F 87.3 °F 64.4 °F 48% 29.98 in - NNW 9.2 mph - N/A   Clear
1:45 PM 86.0 °F 85.4 °F 59.0 °F 40% 29.95 in - North 9.2 mph - N/A   Clear
2:00 PM 86 °F - 59 °F 30% 29.94 in 28 mi North 8.9 mph - -   Partly Cloudy
2:15 PM 86.0 °F 84.9 °F 57.2 °F 37% 29.95 in - NW 6.9 mph - N/A   Clear
2:45 PM 87.8 °F 87.6 °F 60.8 °F 40% 29.95 in - NNW 9.2 mph - N/A   Clear
3:15 PM 87.8 °F 87.1 °F 59.0 °F 38% 29.95 in - North 11.5 mph - N/A   Clear
3:45 PM 84.2 °F 83.8 °F 59.0 °F 42% 29.95 in - North 9.2 mph - N/A   Clear
4:15 PM 84.2 °F 83.8 °F 59.0 °F 42% 29.95 in - North 6.9 mph - N/A   Clear
4:45 PM 86.0 °F 86.1 °F 60.8 °F 43% 29.95 in - North 8.1 mph - N/A   Clear
5:15 PM 86.0 °F 85.4 °F 59.0 °F 40% 29.95 in - North 6.9 mph - N/A   Clear
5:45 PM 84.2 °F 83.8 °F 59.0 °F 42% 29.95 in 6.2 mi North 8.1 mph - N/A   Scattered Clouds
6:15 PM 82.4 °F 82.5 °F 59.0 °F 45% 29.95 in - North 5.8 mph - N/A   Clear
6:45 PM 84.2 °F 83.8 °F 59.0 °F 42% 29.95 in - NNE 9.2 mph - N/A   Clear
7:15 PM 82.4 °F 82.5 °F 59.0 °F 45% 29.95 in - NE 5.8 mph - N/A   Clear
7:45 PM 82.4 °F 82.9 °F 60.8 °F 48% 29.95 in - NNE 6.9 mph - N/A   Clear
8:00 PM 82 °F - 60 °F 37% 29.93 in 31 mi NNE 6.7 mph - -   Partly Cloudy
8:15 PM 78.8 °F - 60.8 °F 54% 29.95 in - NE 5.8 mph - N/A   Clear
8:45 PM 77.0 °F - 59.0 °F 54% 29.95 in 6.2 mi NE 9.2 mph - N/A   Partly Cloudy
9:15 PM 75.2 °F - 59.0 °F 57% 29.98 in - NNE 8.1 mph - N/A   Clear
9:45 PM 75.2 °F - 59.0 °F 57% 29.98 in 6.2 mi NE 9.2 mph - N/A   Partly Cloudy
10:45 PM 71.6 °F - 55.4 °F 57% 30.01 in - NE 12.7 mph - N/A   Clear
11:45 PM 69.8 °F - 51.8 °F 53% 30.04 in 6.2 mi NNE 9.2 mph - N/A   Partly Cloudy